Location: Newark
(50.5930°N, 3.6720°W)
Time: 03:57:55
(UTC+00:00)

X-37B - Pass Details

Date: 21 September 2020
Orbit: 382 x 392 km, 45.0° (Epoch: 15 October)

Event Time Altitude Azimuth Distance (km) Brightness Sun altitude
Exits shadow 05:14:20 10° 243° (WSW) 1,388 2.8 -8.0°
Maximum altitude 05:16:23 17° 201° (SSW) 1,074 2.5 -7.7°
Drops below altitude 10° 05:18:29 10° 159° (SSE) 1,401 3.5 -7.4°
Sets 05:21:02 0° 138° (SE) 2,254 4.9 -7.0°
